[[{"header":{"parameterUnit":"m.s-1","parameterCategory":1,"la1":30.2991,"la2":30.254,"lo1":-89.0895,"lo2":-89.0444,"dy":0.0017,"dx":0.0017,"nx":28,"ny":28,"refTime":"2023-08-28T03:00:00:Z","depth":0,"parameterNumber":2,"parameterNumberName":"U-component_of_WINDS"},"data":[0,0,0,0,0,0,0,0,0,0,0,0,0,0,0,0,0,0,0,0,0,0,0,0,0,0,0,0,0,0,0,0,0,0,0,0,0,0,0,0,0,0,0,0,0,0,0,0,0,0,0,0,0,0,0,0,0,0,-0.5266,-0.5266,0,-0.5242,-0.5242,-0.5241,-0.5233,-0.5233,-0.5234,-0.5234,-0.5207,-0.5206,-0.5205,0,0,0,0,0,0,0,0,0,0,0,0,0,-0.5303,-0.5302,-0.5266,-0.5266,-0.5266,-0.5242,-0.5242,-0.5241,-0.5233,-0.5233,-0.5234,-0.5234,-0.5207,-0.5206,-0.5205,0,0,0,0,0,0,0,0,0,0,0,0,0,-0.5284,-0.5302,-0.5266,-0.5259,-0.5258,-0.5242,-0.5242,-0.5241,-0.5233,-0.5233,-0.5234,-0.5234,-0.5207,-0.5206,-0.5205,-0.5194,0,0,-0.5201,-0.5201,0,0,0,0,0,0,0,0,-0.5285,-0.5282,-0.526,-0.5259,-0.5258,-0.5241,-0.5245,-0.5225,-0.5233,-0.5243,-0.5234,-0.5234,-0.5218,-0.5216,-0.5211,-0.5193,-0.5192,-0.5201,-0.52,-0.52,-0.5199,0,0,0,0,0,0,0,-0.5286,-0.5283,-0.5257,-0.526,-0.5259,-0.5256,-0.5253,-0.5241,-0.523,-0.5242,-0.5241,-0.5238,-0.5217,-0.5212,-0.521,-0.5191,-0.5201,-0.52,-0.5199,-0.5199,-0.5161,-0.5161,0,0,0,0,0,0,-0.5289,-0.5284,-0.5257,-0.5256,-0.5272,-0.5255,-0.5252,-0.5246,-0.523,-0.5227,-0.5238,-0.5238,-0.5214,-0.5211,-0.5209,-0.5194,-0.52,-0.5199,-0.5198,-0.5161,-0.5161,-0.5161,0,0,0,0,0,0,-0.529,-0.5287,-0.5258,-0.527,-0.5266,-0.5254,-0.5248,-0.5246,-0.524,-0.5227,-0.5225,-0.5235,-0.5214,-0.5211,-0.5198,-0.5193,-0.5198,-0.5197,-0.5162,-0.5161,-0.5161,-0.5165,0,0,0,0,0,0,-0.5291,-0.5287,-0.5284,-0.527,-0.5266,-0.5248,-0.5248,-0.5245,-0.5239,-0.5238,-0.5224,-0.5221,-0.5214,-0.5199,-0.5196,-0.5191,-0.5196,-0.5162,-0.5161,-0.5161,-0.5165,-0.5165,-0.5164,0,0,0,0,0,-0.5292,-0.5286,-0.5284,-0.528,-0.5261,-0.5248,-0.5246,-0.5238,-0.5238,-0.5234,-0.5225,-0.5222,-0.5194,-0.5198,-0.5195,-0.5189,-0.5162,-0.5162,-0.5161,-0.5165,-0.5165,-0.5164,0,0,0,0,0,0,-0.5299,-0.5284,-0.5281,-0.527,-0.5261,-0.5247,-0.5242,-0.5238,-0.5227,-0.5227,-0.5217,-0.5214,-0.5201,-0.5194,-0.5199,-0.5177,-0.5178,-0.5176,-0.5182,-0.5182,-0.5181,-0.5183,-0.5195,0,0,0,0,0,-0.5299,-0.5291,-0.5278,-0.5269,-0.5265,-0.5254,-0.5248,-0.5243,-0.5232,-0.5228,-0.5218,-0.5207,-0.5195,-0.5188,-0.5177,-0.5164,-0.516,-0.5158,-0.5158,-0.5158,-0.5157,-0.5147,-0.5146,-0.5159,-0.5159,-0.5159,0,0,-0.53,-0.529,-0.5286,-0.527,-0.5262,-0.5252,-0.5251,-0.5241,-0.5233,-0.5226,-0.5213,-0.5205,-0.5192,-0.5178,-0.5172,-0.5172,-0.5152,-0.5157,-0.5157,-0.5156,-0.5146,-0.5145,-0.5144,-0.5158,-0.5158,-0.5158,0,0,-0.5295,-0.5288,-0.528,-0.5271,-0.5259,-0.5252,-0.5249,-0.5236,-0.5231,-0.5217,-0.5211,-0.5201,-0.5182,-0.5173,-0.5165,-0.5155,-0.5151,-0.5152,-0.515,-0.5141,-0.514,-0.5139,-0.5134,-0.5133,-0.5151,-0.5151,-0.5151,0,-0.5297,-0.5283,-0.5276,-0.5266,-0.5258,-0.5252,-0.5242,-0.5234,-0.5219,-0.5213,-0.5214,-0.5189,-0.5179,-0.5162,-0.516,-0.5155,-0.5151,-0.5154,-0.5141,-0.514,-0.5139,-0.5134,-0.5132,-0.5151,-0.5151,-0.5151,-0.5151,0,-0.5286,-0.5276,-0.527,-0.5256,-0.5248,-0.5238,-0.5228,-0.522,-0.5215,-0.5207,-0.5193,-0.5181,-0.5167,-0.5162,-0.5158,-0.5144,-0.5144,-0.5143,-0.5144,-0.5138,-0.5133,-0.5131,-0.5151,-0.5151,-0.5151,-0.5151,0,0,-0.5286,-0.5266,-0.5264,-0.5257,-0.5242,-0.5234,-0.5223,-0.5209,-0.5202,-0.5191,-0.5181,-0.5164,-0.5162,-0.5154,-0.5147,-0.514,-0.513,-0.5139,-0.5138,-0.5137,-0.5113,-0.5114,-0.5112,-0.5128,-0.5127,-0.5127,-0.5114,0,-0.5279,-0.5261,-0.5253,-0.5237,-0.5227,-0.522,-0.521,-0.5199,-0.5191,-0.518,-0.517,-0.5158,-0.5157,-0.5152,-0.5144,-0.5133,-0.5126,-0.5134,-0.5116,-0.5116,-0.512,-0.511,-0.5111,-0.51,-0.5112,-0.5112,-0.5112,0,-0.5269,-0.5258,-0.5242,-0.5227,-0.5222,-0.5214,-0.52,-0.519,-0.5176,-0.5171,-0.5161,-0.5154,-0.5141,-0.5142,-0.5123,-0.5129,-0.5121,-0.5114,-0.5114,-0.5111,-0.5113,-0.5107,-0.5096,-0.5094,-0.5109,-0.5109,-0.5109,0,-0.527,-0.5251,-0.5238,-0.5232,-0.5215,-0.5208,-0.5201,-0.5187,-0.5179,-0.5166,-0.516,-0.5146,-0.5138,-0.5126,-0.5115,-0.5118,-0.5096,-0.5097,-0.509,-0.509,-0.5086,-0.5086,-0.5073,-0.5082,-0.5082,-0.5082,-0.5082,0,-0.5263,-0.5253,-0.5238,-0.5231,-0.5218,-0.5208,-0.5196,-0.5188,-0.5175,-0.5165,-0.5157,-0.5147,-0.5133,-0.5121,-0.5112,-0.5096,-0.5093,-0.5087,-0.5085,-0.5087,-0.5088,-0.5082,-0.5082,-0.5081,-0.5081,-0.5081,-0.5082,0,-0.5262,-0.5252,-0.5238,-0.5222,-0.5217,-0.5209,-0.5194,-0.5186,-0.5177,-0.5163,-0.5159,-0.5144,-0.5129,-0.5117,-0.5097,-0.5091,-0.5074,-0.5072,-0.5079,-0.5078,-0.5071,-0.5071,-0.5053,-0.5049,-0.5061,-0.5061,-0.5061,0,-0.5259,-0.5251,-0.5233,-0.5226,-0.5218,-0.5206,-0.5198,-0.5186,-0.5177,-0.516,-0.5153,-0.5137,-0.5124,-0.51,-0.5087,-0.5071,-0.5068,-0.5062,-0.5065,-0.5068,-0.5066,-0.5067,-0.5065,-0.5062,-0.5062,-0.5062,-0.5062,0,-0.5253,-0.5247,-0.5236,-0.5222,-0.5212,-0.52,-0.5188,-0.5182,-0.5168,-0.5158,-0.5143,-0.5132,-0.5111,-0.5095,-0.5078,-0.5068,-0.5062,-0.5061,-0.5058,-0.5061,-0.5064,-0.5061,-0.5077,-0.5061,-0.5061,-0.5061,-0.5061,-0.5061,-0.5249,-0.5241,-0.5228,-0.5214,-0.5204,-0.5193,-0.5183,-0.5173,-0.516,-0.5142,-0.5136,-0.512,-0.5104,-0.508,-0.507,-0.5056,-0.5055,-0.5052,-0.5051,-0.505,-0.5049,-0.5067,-0.5052,-0.5052,-0.5052,-0.5052,-0.5052,0,-0.5242,-0.5233,-0.5221,-0.5204,-0.5193,-0.5189,-0.5174,-0.5165,-0.5151,-0.5137,-0.5124,-0.5105,-0.5089,-0.5074,-0.5056,-0.5048,-0.5044,-0.5043,-0.5044,-0.5041,-0.5051,-0.5055,-0.5046,-0.5046,-0.5046,-0.5046,-0.5046,-0.5046,-0.5237,-0.5223,-0.5216,-0.5196,-0.5186,-0.517,-0.5162,-0.5151,-0.514,-0.5119,-0.5106,-0.5096,-0.5081,-0.5062,-0.5046,-0.5042,-0.5036,-0.5035,-0.503,-0.504,-0.5041,-0.5041,-0.5045,-0.5034,-0.5034,-0.5021,-0.5021,-0.5021]},{"header":{"parameterUnit":"m.s-1","parameterCategory":1,"la1":30.2991,"la2":30.254,"lo1":-89.0895,"lo2":-89.0444,"dy":0.0017,"dx":0.0017,"nx":28,"ny":28,"refTime":"2023-08-28T03:00:00:Z","depth":0,"parameterNumber":3,"parameterNumberName":"V-component_of_WINDS"},"data":[0,0,0,0,0,0,0,0,0,0,0,0,0,0,0,0,0,0,0,0,0,0,0,0,0,0,0,0,0,0,0,0,0,0,0,0,0,0,0,0,0,0,0,0,0,0,0,0,0,0,0,0,0,0,0,0,0,0,0.0255,0.0255,0,0.0249,0.0249,0.0248,0.0183,0.0181,0.018,0.0178,0.0173,0.0175,0.0176,0,0,0,0,0,0,0,0,0,0,0,0,0,0.0214,0.0215,0.0255,0.0255,0.0255,0.0249,0.0249,0.0248,0.0183,0.0181,0.0179,0.0178,0.0173,0.0174,0.0176,0,0,0,0,0,0,0,0,0,0,0,0,0,0.0222,0.0216,0.0255,0.0222,0.0219,0.0249,0.0249,0.0248,0.0184,0.0181,0.0179,0.0177,0.0172,0.0174,0.0176,0.0238,0,0,0.0183,0.0184,0,0,0,0,0,0,0,0,0.0222,0.0224,0.0227,0.0224,0.0221,0.0214,0.0232,0.0245,0.0184,0.0197,0.0178,0.0175,0.0189,0.019,0.0194,0.0238,0.0238,0.0183,0.0184,0.0185,0.0186,0,0,0,0,0,0,0,0.0221,0.0224,0.0253,0.0227,0.0223,0.0208,0.0206,0.0234,0.0207,0.0196,0.0191,0.0191,0.0187,0.0192,0.0193,0.0238,0.0183,0.0185,0.0186,0.0187,0.0334,0.0337,0,0,0,0,0,0,0.0225,0.0224,0.0253,0.0253,0.0215,0.0211,0.0209,0.0219,0.0206,0.0202,0.0193,0.0188,0.0189,0.0191,0.0193,0.0266,0.0185,0.0187,0.0188,0.0332,0.0335,0.0338,0,0,0,0,0,0,0.0225,0.0228,0.0253,0.0237,0.0239,0.0214,0.0226,0.022,0.0225,0.0204,0.0199,0.0203,0.0188,0.019,0.0228,0.0265,0.0188,0.019,0.0329,0.0333,0.0337,0.0412,0,0,0,0,0,0,0.0224,0.0229,0.0251,0.0238,0.024,0.0288,0.0228,0.0222,0.0228,0.0222,0.0212,0.0209,0.0186,0.0225,0.023,0.0266,0.0191,0.0325,0.0331,0.0335,0.0406,0.0418,0.0428,0,0,0,0,0,0.0222,0.0273,0.0253,0.0257,0.0268,0.029,0.0291,0.0264,0.0232,0.0255,0.0242,0.0209,0.026,0.0229,0.0234,0.0272,0.0323,0.0329,0.0335,0.0401,0.0416,0.0428,0,0,0,0,0,0,0.0292,0.027,0.0248,0.0295,0.0295,0.0279,0.0307,0.028,0.0289,0.0282,0.0248,0.0246,0.029,0.0284,0.0251,0.0332,0.0286,0.0293,0.0334,0.0348,0.0359,0.036,0.0193,0,0,0,0,0,0.0312,0.0332,0.0312,0.0356,0.0357,0.0332,0.0341,0.032,0.0318,0.0318,0.0308,0.0308,0.0324,0.0335,0.0349,0.0405,0.0403,0.0433,0.0444,0.0453,0.0461,0.0491,0.0505,0.0358,0.0358,0.0358,0,0,0.0356,0.0346,0.0361,0.037,0.0367,0.0389,0.0333,0.0358,0.0374,0.0322,0.0357,0.035,0.0348,0.0396,0.0416,0.0393,0.0501,0.0461,0.0469,0.0471,0.0499,0.0513,0.0526,0.0362,0.0361,0.036,0,0,0.0446,0.044,0.0477,0.0475,0.0471,0.0455,0.0464,0.0452,0.0445,0.048,0.0442,0.0461,0.0489,0.049,0.0494,0.0586,0.0557,0.0591,0.065,0.068,0.0692,0.0702,0.0737,0.0749,0.0598,0.0598,0.0598,0,0.05,0.0531,0.0499,0.0527,0.0533,0.0486,0.0524,0.0524,0.0526,0.0531,0.0504,0.0539,0.0535,0.0583,0.0605,0.0609,0.062,0.0593,0.0693,0.0702,0.0712,0.0744,0.0757,0.0602,0.0602,0.0601,0.0601,0,0.0599,0.0621,0.0651,0.0653,0.0662,0.0695,0.0669,0.0682,0.066,0.0647,0.0684,0.0677,0.0689,0.0699,0.0677,0.0744,0.073,0.0698,0.0651,0.0731,0.0761,0.0773,0.0609,0.0607,0.0606,0.0605,0,0,0.0732,0.0718,0.0729,0.0731,0.0724,0.0741,0.0772,0.0783,0.0796,0.0798,0.0825,0.085,0.0821,0.0826,0.0804,0.0831,0.0906,0.0796,0.0796,0.0819,0.0982,0.1007,0.1022,0.0886,0.0889,0.089,0.0983,0,0.0821,0.0873,0.0846,0.0902,0.0923,0.0879,0.0906,0.0906,0.0894,0.0911,0.0898,0.0918,0.0877,0.088,0.0904,0.0892,0.0939,0.0885,0.0912,0.0914,0.0916,0.1038,0.1064,0.1152,0.0994,0.0996,0.0998,0,0.093,0.0938,0.0997,0.0987,0.0995,0.102,0.1029,0.1045,0.1044,0.1034,0.104,0.1012,0.1043,0.0996,0.1039,0.1003,0.1012,0.1008,0.1011,0.1014,0.0962,0.1046,0.1179,0.1193,0.1015,0.1014,0.1013,0,0.1025,0.1049,0.1088,0.109,0.1079,0.1099,0.1095,0.1091,0.1101,0.1109,0.1115,0.1126,0.1133,0.1144,0.1121,0.1088,0.1168,0.1118,0.1162,0.1163,0.1182,0.1182,0.1321,0.1186,0.1185,0.1185,0.1185,0,0.1127,0.1165,0.113,0.1154,0.1196,0.1165,0.1207,0.1199,0.1196,0.1219,0.1181,0.1203,0.117,0.119,0.1172,0.1212,0.1214,0.1208,0.1204,0.1213,0.1214,0.122,0.1214,0.1189,0.1188,0.1187,0.1187,0,0.124,0.1218,0.1258,0.1244,0.1242,0.1274,0.1263,0.1285,0.1271,0.13,0.1305,0.1283,0.1304,0.1282,0.1301,0.1289,0.1343,0.1328,0.1344,0.134,0.1386,0.1383,0.1536,0.1555,0.1406,0.1407,0.1408,0,0.1308,0.1336,0.1326,0.1338,0.1337,0.1357,0.1366,0.1337,0.1348,0.135,0.1372,0.139,0.1402,0.1438,0.1424,0.1439,0.1426,0.1478,0.1428,0.1437,0.1429,0.1428,0.1432,0.1489,0.1491,0.1492,0.1493,0,0.1431,0.1419,0.1433,0.1445,0.1457,0.1464,0.1469,0.1481,0.1451,0.1466,0.1486,0.1496,0.1516,0.1535,0.1546,0.1543,0.1514,0.1509,0.1521,0.1531,0.154,0.1538,0.1374,0.1506,0.1505,0.1504,0.1503,0.1503,0.1524,0.1548,0.1545,0.1563,0.1564,0.1569,0.159,0.1579,0.1595,0.1609,0.159,0.1617,0.1616,0.1628,0.1629,0.165,0.1628,0.1644,0.1648,0.1653,0.1661,0.1535,0.1651,0.1651,0.1651,0.165,0.165,0,0.1647,0.1643,0.166,0.1668,0.1683,0.1653,0.1657,0.1672,0.1695,0.1697,0.171,0.1735,0.1753,0.1741,0.1757,0.1776,0.1763,0.1781,0.178,0.1781,0.1679,0.1668,0.1791,0.1791,0.1791,0.1791,0.1791,0.1791,0.1713,0.1752,0.174,0.1779,0.1775,0.1801,0.1806,0.1811,0.1813,0.1842,0.1857,0.1848,0.1845,0.1861,0.1877,0.1873,0.1881,0.1904,0.1896,0.1801,0.1788,0.1774,0.1765,0.1906,0.1906,0.1997,0.1998,0.1998]}]]